Location: ?
(35.4064°N, 139.3593°E)
Time: 19:11:06
(UTC+00:00)

SL-16 R/B - Pass Details

Date: 18 April 2024
Orbit: 839 x 849 km, 71.0° (Epoch: 26 May)

Event Time Altitude Azimuth Distance (km) Brightness Sun altitude
Exits shadow 18:20:46 39° 255° (WSW) 1,242 2.6 -20.4°
Maximum altitude 18:22:12 47° 295° (WNW) 1,098 2.5 -20.2°
Drops below altitude 10° 18:27:39 10° 9° (N) 2,465 5.1 -19.2°
Sets 18:30:12 0° 16° (NNE) 3,405 6.0 -18.8°
